When you browse on this site, cookies collect data to enhance your experience and personalize the content and advertising you see.
Visit our Privacy Policy to learn more. By continuing to use the site, you agree to this use of cookies and data.
  • In Portugal
  • List of Countries
  • For 7 days
  • Water Temperature
  • Satellite Maps
  • Weather Map
  • Weather Widgets
  • user-avatar
    Login

    Hourly Weather Weglew

    Today, 24 April, Wednesday

    Time Temperature Precipitation Wind Pressure Humidity
    00:00 +11°C° 0 mm 7 mps 752 mmHg 56%
    01:00 +11°C° 0 mm 6 mps 752 mmHg 58%
    02:00 +10°C° 0 mm 6 mps 752 mmHg 60%
    03:00 +9°C° 0 mm 6 mps 752 mmHg 62%
    04:00 +9°C° 0 mm 6 mps 752 mmHg 64%
    05:00 +9°C° 0 mm 6 mps 752 mmHg 66%
    06:00 +10°C° 0 mm 7 mps 752 mmHg 67%
    07:00 +11°C° 0 mm 7 mps 752 mmHg 68%
    08:00 +12°C° 0 mm 7 mps 752 mmHg 65%
    09:00 +15°C° 0 mm 7 mps 752 mmHg 61%
    10:00 +17°C° 0 mm 7 mps 751 mmHg 58%
    11:00 +17°C° 0 mm 7 mps 751 mmHg 58%
    12:00 +19°C° 0 mm 6 mps 751 mmHg 58%
    13:00 +20°C° 0 mm 6 mps 751 mmHg 58%
    14:00 +19°C° 0 mm 5 mps 751 mmHg 60%
    15:00 +19°C° 0 mm 5 mps 751 mmHg 61%
    16:00 +19°C° 0 mm 4 mps 751 mmHg 63%
    17:00 +19°C° 0 mm 4 mps 751 mmHg 64%
    18:00 +18°C° 0 mm 4 mps 751 mmHg 65%
    19:00 +18°C° 0 mm 4 mps 751 mmHg 65%
    20:00 +17°C° 0 mm 4 mps 751 mmHg 67%
    21:00 +15°C° 0 mm 5 mps 751 mmHg 70%
    22:00 +15°C° 0 mm 5 mps 751 mmHg 72%
    23:00 +14°C° 0 mm 5 mps 751 mmHg 74%

    Tomorrow, 25 April, Thursday

    Time Temperature Precipitation Wind Pressure Humidity
    00:00 +14°C° 0 mm 5 mps 751 mmHg 75%
    01:00 +13°C° 0 mm 4 mps 751 mmHg 77%
    02:00 +13°C° 0 mm 5 mps 751 mmHg 77%
    03:00 +13°C° 0 mm 5 mps 751 mmHg 78%
    04:00 +12°C° 0 mm 5 mps 751 mmHg 78%
    05:00 +13°C° 0 mm 5 mps 751 mmHg 76%
    06:00 +15°C° 0 mm 5 mps 751 mmHg 75%
    07:00 +16°C° 0 mm 5 mps 751 mmHg 73%
    08:00 +17°C° 0 mm 5 mps 751 mmHg 69%
    09:00 +20°C° 0 mm 5 mps 751 mmHg 64%
    10:00 +21°C° 0 mm 6 mps 751 mmHg 59%
    11:00 +21°C° 0 mm 5 mps 751 mmHg 58%
    12:00 +21°C° 0 mm 5 mps 751 mmHg 57%
    13:00 +22°C° 0 mm 5 mps 751 mmHg 56%
    14:00 +22°C° 0 mm 4 mps 751 mmHg 56%
    15:00 +22°C° 0 mm 3 mps 751 mmHg 57%
    16:00 +22°C° 0 mm 3 mps 751 mmHg 57%
    17:00 +20°C° 0 mm 2 mps 751 mmHg 62%
    18:00 +20°C° 0 mm 1 mps 751 mmHg 67%
    19:00 +19°C° 0 mm 1 mps 750 mmHg 72%
    20:00 +18°C° 0 mm 1 mps 751 mmHg 75%
    21:00 +16°C° 0 mm 1 mps 751 mmHg 78%
    22:00 +15°C° 0 mm 2 mps 751 mmHg 81%
    23:00 +15°C° 0 mm 2 mps 751 mmHg 83%

    Day after tomorrow, 26 April, Friday

    Time Temperature Precipitation Wind Pressure Humidity
    00:00 +15°C° 0 mm 2 mps 751 mmHg 86%
    01:00 +14°C° 0 mm 2 mps 750 mmHg 88%
    02:00 +14°C° 0 mm 2 mps 750 mmHg 88%
    03:00 +14°C° 0 mm 2 mps 750 mmHg 88%
    04:00 +13°C° 0 mm 2 mps 750 mmHg 89%
    05:00 +15°C° 0 mm 2 mps 750 mmHg 83%
    06:00 +16°C° 0 mm 2 mps 750 mmHg 78%
    07:00 +18°C° 0 mm 3 mps 749 mmHg 72%
    08:00 +19°C° 0 mm 2 mps 749 mmHg 66%
    09:00 +21°C° 0 mm 2 mps 749 mmHg 60%
    10:00 +23°C° 0 mm 2 mps 749 mmHg 55%
    11:00 +24°C° 0 mm 2 mps 749 mmHg 52%
    12:00 +25°C° 0 mm 3 mps 748 mmHg 49%
    13:00 +26°C° 0 mm 3 mps 748 mmHg 47%
    14:00 +25°C° 0 mm 3 mps 748 mmHg 47%
    15:00 +25°C° 0 mm 2 mps 748 mmHg 47%
    16:00 +25°C° 0 mm 2 mps 747 mmHg 47%
    17:00 +24°C° 0 mm 1 mps 747 mmHg 52%
    18:00 +22°C° 0 mm 1 mps 747 mmHg 57%
    19:00 +20°C° 0 mm 1 mps 747 mmHg 62%
    20:00 +20°C° 0 mm 1 mps 747 mmHg 64%
    21:00 +19°C° 0 mm 1 mps 747 mmHg 66%
    22:00 +19°C° 0 mm 1 mps 747 mmHg 68%
    23:00 +18°C° 0 mm 1 mps 747 mmHg 71%

    27 April, Saturday

    Time Temperature Precipitation Wind Pressure Humidity
    00:00 +18°C° 0 mm 1 mps 747 mmHg 74%
    01:00 +16°C° 0 mm 1 mps 746 mmHg 77%
    02:00 +16°C° 0 mm 1 mps 746 mmHg 79%
    03:00 +15°C° 0 mm 1 mps 746 mmHg 81%
    04:00 +15°C° 0 mm 1 mps 746 mmHg 84%
    05:00 +16°C° 0 mm 1 mps 746 mmHg 82%
    06:00 +16°C° 0 mm 2 mps 746 mmHg 81%
    07:00 +17°C° 0 mm 2 mps 746 mmHg 80%
    08:00 +18°C° 0 mm 3 mps 746 mmHg 78%
    09:00 +19°C° 0 mm 4 mps 746 mmHg 76%
    10:00 +19°C° 0 mm 5 mps 747 mmHg 74%
    11:00 +19°C° 0 mm 5 mps 747 mmHg 75%
    12:00 +17°C° 0 mm 5 mps 747 mmHg 76%
    13:00 +17°C° 0 mm 5 mps 747 mmHg 78%
    14:00 +16°C° 0 mm 6 mps 747 mmHg 77%
    15:00 +16°C° 0 mm 6 mps 747 mmHg 77%
    16:00 +15°C° 0 mm 6 mps 748 mmHg 76%
    17:00 +14°C° 0 mm 6 mps 748 mmHg 77%
    18:00 +13°C° 0 mm 6 mps 749 mmHg 77%
    19:00 +11°C° 0 mm 6 mps 749 mmHg 77%
    20:00 +10°C° 0 mm 6 mps 749 mmHg 78%
    21:00 +9°C° 0 mm 5 mps 750 mmHg 80%
    22:00 +8°C° 0 mm 5 mps 750 mmHg 81%
    23:00 +8°C° 0 mm 5 mps 751 mmHg 80%

    28 April, Sunday

    Time Temperature Precipitation Wind Pressure Humidity
    00:00 +8°C° 0 mm 5 mps 751 mmHg 79%
    01:00 +9°C° 0 mm 5 mps 751 mmHg 78%
    02:00 +8°C° 0 mm 5 mps 752 mmHg 81%
    03:00 +8°C° 0 mm 5 mps 752 mmHg 84%
    04:00 +7°C° 0 mm 4 mps 752 mmHg 88%
    05:00 +8°C° 0 mm 5 mps 752 mmHg 86%
    06:00 +8°C° 0 mm 5 mps 753 mmHg 84%
    07:00 +9°C° 0 mm 5 mps 753 mmHg 82%
    08:00 +11°C° 0 mm 4 mps 753 mmHg 78%
    09:00 +12°C° 0 mm 4 mps 754 mmHg 75%
    10:00 +12°C° 0 mm 4 mps 754 mmHg 72%
    11:00 +13°C° 0 mm 4 mps 754 mmHg 68%
    12:00 +14°C° 0 mm 4 mps 754 mmHg 65%
    13:00 +16°C° 0 mm 3 mps 754 mmHg 62%
    14:00 +16°C° 0 mm 3 mps 754 mmHg 62%
    15:00 +15°C° 0 mm 4 mps 754 mmHg 62%
    16:00 +15°C° 0 mm 4 mps 754 mmHg 62%
    17:00 +14°C° 0 mm 4 mps 754 mmHg 66%
    18:00 +13°C° 0 mm 3 mps 754 mmHg 70%
    19:00 +12°C° 0 mm 3 mps 755 mmHg 74%
    20:00 +12°C° 0 mm 3 mps 755 mmHg 75%
    21:00 +11°C° 0 mm 3 mps 755 mmHg 76%
    22:00 +11°C° 0 mm 3 mps 755 mmHg 77%
    23:00 +11°C° 0 mm 3 mps 755 mmHg 79%

    29 April, Monday

    Time Temperature Precipitation Wind Pressure Humidity
    00:00 +10°C° 0 mm 3 mps 755 mmHg 82%
    01:00 +10°C° 0 mm 3 mps 755 mmHg 84%
    02:00 +10°C° 0 mm 4 mps 755 mmHg 85%
    03:00 +10°C° 0 mm 4 mps 755 mmHg 85%
    04:00 +10°C° 0 mm 4 mps 755 mmHg 86%
    05:00 +10°C° 0.1 mm 4 mps 754 mmHg 87%
    06:00 +10°C° 0.1 mm 5 mps 754 mmHg 88%
    07:00 +10°C° 0.1 mm 5 mps 754 mmHg 89%
    08:00 +10°C° 0.3 mm 5 mps 754 mmHg 88%
    09:00 +12°C° 0.3 mm 4 mps 754 mmHg 88%
    10:00 +12°C° 0.3 mm 4 mps 754 mmHg 88%
    11:00 +13°C° 0.1 mm 4 mps 753 mmHg 87%
    12:00 +14°C° 0.1 mm 4 mps 753 mmHg 85%
    13:00 +15°C° 0.1 mm 4 mps 753 mmHg 84%
    14:00 +18°C° 0.5 mm 4 mps 753 mmHg 79%
    15:00 +19°C° 0.5 mm 3 mps 753 mmHg 74%
    16:00 +20°C° 0.5 mm 3 mps 752 mmHg 70%
    17:00 +19°C° 0.4 mm 3 mps 752 mmHg 76%
    18:00 +17°C° 0.4 mm 3 mps 753 mmHg 82%
    19:00 +16°C° 0.4 mm 3 mps 753 mmHg 88%
    20:00 +14°C° 0 mm 3 mps 753 mmHg 90%
    21:00 +13°C° 0 mm 3 mps 753 mmHg 91%
    22:00 +12°C° 0 mm 3 mps 753 mmHg 93%
    23:00 +11°C° 0 mm 3 mps 753 mmHg 93%
    Show more